Home > Weather > Nuuk > Past weeks

Flag for Greenland Past Weather in Nuuk, Greenland — Yesterday and Last 2 Weeks

Now
52 °F

Broken clouds.


Feels Like: 51 °F
Forecast: 45 / 53 °F
Wind: 3 mph from Southwest

Location: Godthaab / Nuuk

Current Time: Aug 26, 2016 at 11:56:40 AM

Latest Report: Aug 26, 2016 at 10:50 AM


Visibility: N/A

Pressure: 29.98 "Hg

Humidity: 77%

Dew Point: 45 °F

Location of NuukLocation

Past Weather in Nuuk — Graph

°F

Nuuk Temperature Yesterday

Maximum temperature yesterday: 54 °F (at 11:50 AM)
Minimum temperature yesterday: 46 °F (at 12:50 AM)
Average temperature yesterday: 50 °F

High & Low Weather Summary for the Past Weeks

 TemperatureHumidityPressure
High70 °F (Aug 24, 1:20 PM)100% (Aug 11, 9:50 AM)30.09 "Hg (Aug 11, 9:50 AM)
Low34 °F (Aug 20, 2:50 AM)27% (Aug 24, 1:20 PM)29.33 "Hg (Aug 15, 1:50 AM)
Average46 °F83%29.76 "Hg
* Reported Aug 11 9:50 AM — Aug 26 9:50 AM, Nuuk, Weather by CustomWeather, © 2016

Note: Actual official high and low records may vary slightly from our data, if they occured in-between our weather recording intervals... More about our weather records

Advertising

Nuuk Weather History for the Previous 24 Hours

Scroll right to see more
 ConditionsComfort  
Time TempWeatherWind HumidityBarometerVisibility
9:50 AM
Fri, Aug 26
50 °FPartly sunny.6 mph82%29.95 "HgN/A
8:50 AM50 °FPartly sunny.9 mph82%29.95 "HgN/A
7:50 AM50 °FPartly sunny.6 mph76%29.95 "HgN/A
6:50 AM48 °FPassing clouds.1 mph87%29.92 "HgN/A
5:50 AM48 °FPassing clouds.1 mph87%29.92 "HgN/A
4:50 AM46 °FPassing clouds.No wind87%29.92 "HgN/A
3:50 AM50 °FOvercast.No wind76%29.92 "HgN/A
2:50 AM50 °FOvercast.3 mph76%29.92 "HgN/A
1:50 AM50 °FOvercast.2 mph76%29.92 "HgN/A
12:50 AM50 °FOvercast.7 mph76%29.92 "HgN/A
11:50 PM
Thu, Aug 25
48 °FPassing clouds.8 mph82%29.92 "HgN/A
10:50 PM50 °FPassing clouds.14 mph76%29.89 "HgN/A
9:50 PM48 °FOvercast.10 mph82%29.89 "HgN/A
8:50 PM48 °FOvercast.10 mph82%29.89 "HgN/A
7:50 PM50 °FPartly sunny.12 mph76%29.89 "HgN/A
6:50 PM50 °FPartly sunny.13 mph76%29.86 "HgN/A
5:50 PM50 °FPartly sunny.14 mph76%29.86 "HgN/A
4:50 PM52 °FOvercast.16 mph72%29.86 "HgN/A
3:50 PM52 °FOvercast.16 mph77%29.86 "HgN/A
2:50 PM52 °FBroken clouds.15 mph77%29.86 "HgN/A
1:50 PM52 °FBroken clouds.16 mph77%29.86 "HgN/A
12:50 PM52 °FPartly sunny.14 mph72%29.86 "HgN/A
11:50 AM54 °FPartly sunny.9 mph67%29.86 "HgN/A
Weather by CustomWeather, © 2016

See weather overviewHow to use our weather pages